Simultaneous Nadir Overpasses (SNOs) Predictions

Prediction of SNOs between AQUA and METOP-A Satellite Orbit:

Table of predicted SNOs for the next 14.0 days since TLE Epoch: 6/29/2019
Index Date (AQUA) Time (AQUA) Lat,Lon (AQUA) SZA (AQUA ) Date (METOP-A) Time (METOP-A) Lat,Lon (METOP-A) SZA (METOP-A ) Distance(km) Time Diff (sec)
1 06/30/2019 13:15:19 -75.27, 152.02 127.72 06/30/2019 13:14:43 -75.25, 152.13 127.74 3.39 36
2 06/30/2019 14:04:46 75.28, -40.37 52.30 06/30/2019 14:05:22 75.31, -40.38 52.32 3.29 36
3 07/03/2019 08:49:33 -75.23,-141.45 127.56 07/03/2019 08:49:07 -75.24,-141.53 127.53 2.67 26
4 07/03/2019 09:39:01 75.30, 26.01 52.53 07/03/2019 09:39:46 75.30, 25.96 52.52 1.48 45
5 07/06/2019 04:23:47 -75.25, -75.07 127.27 07/06/2019 04:23:29 -75.29, -75.05 127.24 3.71 18
6 07/06/2019 05:13:15 75.33, 92.38 52.81 07/06/2019 05:14:08 75.34, 92.43 52.81 1.86 53
7 07/08/2019 23:08:29 74.96,-175.47 52.70 07/08/2019 23:07:19 74.91,-177.08 52.76 46.76 70
8 07/08/2019 23:58:02 -75.28, -8.70 126.94 07/08/2019 23:57:53 -75.28, -8.71 126.93 0.28 9
9 07/09/2019 00:47:30 75.36, 158.73 53.16 07/09/2019 00:48:32 75.32, 158.76 53.11 3.58 62
10 07/11/2019 18:42:49 75.24,-109.79 53.38 07/11/2019 18:41:36 75.23,-109.80 53.39 0.95 73
11 07/11/2019 19:32:17 -75.31, 57.66 126.54 07/11/2019 19:32:16 -75.32, 57.77 126.54 3.16 1




NCC Satellite Simultaneous Nadir Overpasses (SNOs) Prediction Service
